Flag for Switzerland Weather past 2 weeks in Einsiedeln, Schwyz, Switzerland

Now
61 °F

Cool.


Feels Like: 61 °F
Forecast: 53 / 67 °F
Wind: No wind

Location: Altdorf

Current Time: Jul 26, 2014 at 7:18:34 AM

Latest Report: Jul 26, 2014 at 6:00 AM


Visibility: N/A

Pressure: 29.91 "Hg

Humidity: 94%

Dew point: 59 °F

Location of EinsiedelnLocation

Historic Weather in Einsiedeln — Graph

°F

Einsiedeln temperature yesterday

Maximum temperature yesterday: 78 °F (at 3:00 PM)
Minimum temperature yesterday: 56 °F (at 6:00 AM)
Average temperature yesterday: 66 °F

Past Weeks' High & Low Weather Summary

 TemperatureHumidityPressure
High85 °F (Jul 20, 2:00 AM)96% (Jul 12, 3:00 AM)30.20 "Hg (Jul 12, 3:00 AM)
Low56 °F (Jul 25, 6:00 AM)31% (Jul 19, 8:00 PM)29.75 "Hg (Jul 20, 3:00 AM)
Average67 °F77%29.96 "Hg
* Reported Jul 11 6:00 AM — Jul 26 6:00 AM, Einsiedeln, Weather by CustomWeather, © 2014

Note: Actual official high and low records may vary slightly from our data, if they occured in-between our weather recording intervals... More about our weather records

Advertising

Einsiedeln weather history for previous 24 hours

 ConditionsComfort  
Time TempWeatherWind HumidityBarometerVisibility
6:00 AM
Jul 26
61 °FCool.No wind94%29.91 "HgN/A
5:00 AM61 °FOvercast.No wind94%29.90 "Hg10 mi
4:00 AM61 °FCool.1 mph93%29.90 "HgN/A
3:00 AM61 °FCool.1 mph94%29.91 "HgN/A
2:00 AM62 °FOvercast.2 mph93%29.91 "Hg10 mi
1:00 AM62 °FCool.1 mph93%29.94 "HgN/A
12:00 AM62 °FCool.2 mph93%29.96 "HgN/A
11:00 PM
Jul 25
63 °FLight rain. Low clouds.3 mph91%29.97 "Hg4 mi
10:00 PM63 °FMild.5 mph91%29.94 "HgN/A
9:00 PM64 °FMild.3 mph89%29.90 "HgN/A
8:00 PM68 °FOvercast.9 mph74%29.85 "Hg12 mi
7:00 PM74 °FMild.5 mph53%29.81 "HgN/A
6:00 PM77 °FMild.3 mph50%29.79 "HgN/A
5:00 PM76 °FScattered clouds.6 mph50%29.80 "Hg16 mi
4:00 PM77 °FMild.8 mph44%29.82 "HgN/A
3:00 PM78 °FWarm.7 mph45%29.83 "HgN/A
2:00 PM76 °FMild.7 mph53%29.85 "HgN/A
1:00 PM74 °FMild.5 mph58%29.87 "HgN/A
12:00 PM72 °FMild.2 mph55%29.90 "HgN/A
11:00 AM69 °FPassing clouds.5 mph67%29.91 "Hg17 mi
10:00 AM67 °FMild.5 mph71%29.93 "HgN/A
9:00 AM65 °FMild.No wind79%29.93 "HgN/A
8:00 AM58 °FSunny.1 mph89%29.96 "Hg12 mi
7:00 AM58 °FCool.1 mph88%29.96 "HgN/A
Weather by CustomWeather, © 2014

See weather overviewHow to use our weather pages